SCP
0 0 0 0 0 0 0 0 0 0 0 0 0 0 0 0 0 0 0 0 0 0 0 0 0 0 0 0 0 0 0 0 0 0 0 0 0 0 0 0 0 0 0 0
0 0 0 0 0 0 0 0 0 0 0 0 0 0 0 0 0 0 0 0 0 0 0 0 0 0 0 0 0 0 0 0 0 0 0 0 0 0 0 0 0 0 0 0
0 0 0 0 0 0 0 0 0 0 0 0 0 0 0 0 0 0 0 0 0 0 0 0 0 0 0 0 0 0 0 0 0 0 0 0 0 0 0 0 0 0 0 0
0 0 0 0 0 0 0 0 0 0 0 0 0 0 0 0 0 0 0 0 0 0 0 0 0 0 0 0 0 0 0 0 0 0 0 0 0 0 0 0 0 0 0 0
0 0 0 0 0 0 0 0 0 0 0 0 0 0 0 0 0 0 0 0 0 0 0 0 0 0 0 0 0 0 0 0 0 0 0 0 0 0 0 0 0 0 0 0
0 0 0 0 0 0 0 0 0 0 0 0 0 0 0 0 0 0 0 0 0 0 0 0 0 0 0 0 0 0 0 0 0 0 0 0 0 0 0 0 0 0 0 0
0 0 0 0 0 0 0 0 0 0 0 0 0 0 0 0 0 0 0 0 0 0 0 0 0 0 0 0 0 0 0 0 0 0 0 0 0 0 0 0 0 0 0 0
0 0 0 0 0 0 0 0 0 0 0 0 0 0 0 0 0 0 0 0 0 0 0 0 0 0 0 0 0 0 0 0 0 0 0 0 0 0 0 0 0 0 0 0
0 0 0 0 0 0 0 0 0 0 0 0 0 0 0 0 0 0 0 0 0 0 0 0 0 0 0 0 0 0 0 0 0 0 0 0 0 0 0 0 1 0 0 0
0 0 0 0 0 0 0 0 0 0 0 0 0 0 0 0 0 0 0 0 0 0 0 0 0 0 0 0 0 0 0 0 0 0 0 0 0 0 0 0 0 0 0 0
0 0 0 0 0 0 0 0 0 0 0 0 0 0 0 0 0 0 0 0 0 0 0 0 0 0 0 0 0 0 0 0 0 0 0 0 0 0 0 0 0 0 0 0
0 0 0 0 0 0 0 0 0 0 0 0 0 0 0 0 0 0 0 0 0 0 0 0 0 0 0 0 0 0 0 0 0 0 0 0 0 0 0 0 0 0 0 0
0 0 0 0 0 0 0 0 0 0 0 0 0 0 0 0 0 0 0 0 0 0 0 0 0 0 0 0 0 0 0 0 0 0 0 0 0 0 0 0 0 0 0 0
0 0 0 0 0 0 0 0 0 0 0 0 0 0 0 0 0 0 0 0 0 0 0 0 0 0 0 0 0 0 0 0 0 0 0 0 0 0 0 0 0 0 0 0
0 0 0 0 0 0 0 0 0 0 0 0 0 0 0 0 0 0 0 0 0 0 0 0 0 0 0 0 0 0 0 0 0 0 0 0 0 0 0 0 0 0 0 0
0 0 0 0 0 0 0 0 0 0 0 0 0 0 0 0 0 0 0 0 0 0 0 0 0 0 0 0 0 0 0 0 0 0 0 0 0 0 0 0 0 0 0 0
0 0 0 0 0 0 0 0 0 0 0 0 0 0 0 0 0 0 0 0 0 0 0 0 0 0 0 0 0 0 0 0 0 0 0 0 0 0 0 0 0 0 0 0
0 0 0 0 0 0 0 0 0 0 0 0 0 0 0 0 0 0 0 0 0 0 0 0 0 0 0 0 0 0 0 0 0 0 0 0 0 0 0 0 0 0 0 0
0 0 0 0 0 0 0 0 0 0 0 0 0 0 0 0 0 0 0 0 0 0 0 0 0 0 0 0 0 0 0 0 0 0 0 0 0 0 0 0 0 0 0 0
0 0 0 0 0 0 0 0 0 0 0 0 0 0 0 0 0 0 0 0 0 0 0 0 0 0 0 0 0 0 0 0 0 0 0 0 0 0 0 0 0 0 0 0
0 0 0 0 0 0 0 0 0 0 0 0 0 0 0 0 0 0 0 0 0 0 0 0 0 0 0 0 0 0 0 0 0 0 0 0 0 0 0 0 0 0 0 0
0 0 0 0 0 0 0 0 0 0 0 0 0 0 0 0 0 0 0 0 0 0 0 0 0 0 0 0 0 0 0 0 0 0 0 0 0 0 0 0 0 0 0 0
0 0 0 0 0 0 0 0 0 0 0 0 0 0 0 0 0 0 0 0 0 0 0 0 0 0 0 0 0 0 0 0 0 0 0 0 0 0 0 0 0 0 0 0
0 0 0 0 0 0 0 0 0 0 0 0 0 0 0 0 0 0 0 0 0 0 0 0 0 0 0 0 0 0 0 0 0 0 0 0 0 0 0 0 0 0 0 0
0 0 0 0 0 0 0 0 0 0 0 0 0 0 0 0 0 0 0 0 0 0 0 0 0 0 0 0 0 0 0 0 0 0 0 0 0 0 0 0 0 0 0 0
0 0 0 0 0 0 0 0 0 0 0 0 0 0 0 0 0 0 0 0 0 0 0 0 0 0 0 0 0 0 0 0 0 0 0 0 0 0 0 0 0 0 0 0
Wind_Speed
2 2 3 3 3 1 3 4 3 2 1 4 8 11 11 8 8 10 9 8 8 8 6 5 5 5 4 4 4 4 4 4 3 2 2 2 2 1 1 0 1 1 1 1
3 2 1 1 3 3 3 3 3 2 0 3 7 12 11 8 9 9 10 10 9 7 6 6 5 6 6 5 5 5 5 5 4 3 2 1 1 1 1 1 1 2 2 2
4 2 1 4 4 4 3 4 3 3 2 3 6 9 6 4 5 6 8 8 8 8 8 7 7 7 7 6 6 5 6 5 5 4 3 2 2 2 2 2 2 2 2 2
2 1 3 4 3 3 3 2 2 2 3 2 3 7 5 3 5 6 7 8 8 8 8 7 7 7 7 7 6 6 6 6 5 5 4 5 4 3 3 2 2 2 3 2
3 2 2 3 1 2 1 2 2 1 2 4 3 6 7 1 5 6 6 7 7 7 7 8 7 7 7 6 6 6 6 6 5 5 5 5 4 3 2 3 3 3 3 3
2 1 0 1 2 2 3 3 3 1 2 4 3 6 7 3 5 4 4 5 5 6 6 6 6 6 6 6 6 6 7 6 6 6 6 6 6 5 4 4 4 3 3 3
2 1 1 1 3 3 3 2 1 1 2 4 2 5 10 5 4 4 4 4 4 4 5 6 7 7 7 7 7 7 7 7 7 7 7 7 7 6 6 5 4 4 3 3
5 3 3 2 2 4 4 3 2 3 3 3 3 8 7 2 3 4 5 5 4 4 5 6 6 7 7 7 8 8 8 7 7 7 7 6 6 5 4 5 4 4 3 3
6 3 2 1 1 3 4 3 1 1 1 4 6 7 9 3 4 4 4 4 5 5 5 5 6 6 7 7 8 8 8 7 7 7 7 7 7 6 5 5 4 3 3 2
3 3 2 1 1 1 1 4 4 3 3 5 5 6 5 3 3 3 3 4 4 4 5 5 5 6 6 6 7 7 8 8 7 7 6 5 6 6 5 4 4 4 3 3
2 4 2 3 6 6 5 4 4 3 2 3 5 5 3 4 3 4 4 4 4 5 5 5 5 5 5 6 6 7 7 7 7 7 6 6 5 5 5 4 4 4 3 4
3 3 3 3 0 2 4 5 7 4 5 4 4 8 1 4 4 5 5 4 4 5 5 5 5 5 6 6 6 7 7 7 7 6 6 6 5 5 5 5 4 4 4 4
6 5 3 1 3 3 5 6 6 2 2 5 6 8 1 2 4 5 6 6 5 5 6 5 5 5 6 6 6 6 6 6 6 6 6 6 5 5 5 5 4 4 4 4
4 4 6 6 2 6 7 8 9 8 6 7 12 13 9 7 8 7 7 7 6 6 6 7 6 6 6 6 6 6 6 6 6 6 6 6 6 6 5 4 4 4 4 4
4 4 4 4 3 4 7 10 13 15 13 12 12 14 17 12 10 9 7 7 7 8 8 8 8 7 6 6 6 6 6 6 6 6 6 6 5 5 4 4 4 4 4 4
4 4 2 3 3 5 9 12 15 16 15 17 17 19 17 13 10 10 10 9 9 9 9 8 8 7 7 7 6 6 6 6 6 7 6 5 5 5 5 4 4 4 4 4
6 6 4 4 1 2 12 15 17 13 15 14 18 18 10 9 10 10 9 10 11 11 10 9 9 8 7 7 7 7 6 5 6 6 5 5 5 5 5 4 4 4 4 4
8 6 3 2 2 11 9 4 12 14 15 18 16 15 12 11 8 8 9 10 11 10 9 9 7 7 6 5 6 5 5 5 6 5 5 5 5 5 4 4 4 4 4 4
6 8 5 4 6 11 9 6 9 11 13 16 20 19 14 7 6 9 8 9 10 8 7 6 5 5 4 5 5 5 5 5 5 5 5 5 5 5 4 5 5 4 4 3
3 4 5 6 7 11 7 4 5 4 10 9 15 15 10 5 5 5 1 3 5 4 3 3 3 3 4 4 4 5 5 5 6 5 5 4 5 5 5 5 4 3 3 3
8 7 9 9 10 13 6 6 9 8 7 2 8 9 8 9 7 2 2 2 2 2 2 2 2 3 3 3 4 5 5 5 4 3 3 3 4 4 4 3 3 3 3 2
14 12 12 9 11 15 8 12 13 8 0 2 3 5 7 8 5 4 4 3 2 1 1 2 2 2 2 4 5 5 5 3 2 3 3 3 3 3 3 3 2 2 3 3
14 13 10 14 13 3 11 11 7 2 3 3 3 4 6 6 6 6 5 3 2 2 2 2 3 2 2 3 5 5 4 3 3 3 3 3 2 2 3 4 3 3 3 3
8 4 6 9 13 8 9 8 7 6 6 5 4 5 6 7 6 5 4 3 3 2 2 2 3 3 3 3 4 4 3 3 4 4 3 3 3 3 2 2 3 3 3 3
9 10 8 11 10 6 9 12 12 10 7 6 6 6 7 7 7 6 5 4 4 3 2 3 4 4 4 3 3 3 3 4 4 4 3 3 3 3 2 2 2 2 2 3
10 12 13 12 9 8 8 8 9 9 9 9 8 7 6 7 7 5 5 4 4 4 3 3 3 4 4 3 3 2 3 4 5 4 4 3 3 3 2 2 1 1 2 2
Wind_Direction
48 141 178 197 224 298 161 187 231 262 342 268 259 268 267 249 238 241 237 233 231 234 230 214 205 196 191 194 192 190 191 188 183 186 192 194 197 194 196 199 250 242 226 210
133 182 212 182 176 158 172 199 245 265 269 274 285 278 272 247 236 235 233 232 230 228 218 211 205 195 195 198 195 197 199 195 194 200 200 209 190 208 224 229 236 242 234 225
166 105 176 166 159 174 202 225 241 270 305 231 294 275 253 234 231 239 237 235 232 226 221 213 208 203 199 200 200 203 205 200 198 195 188 176 186 194 203 218 222 231 234 227
124 119 159 163 171 199 219 208 219 243 277 287 325 292 277 255 256 236 229 223 226 222 221 218 213 209 204 202 198 202 204 201 197 191 200 202 209 216 222 223 225 228 228 230
150 151 159 178 186 201 139 114 152 211 249 277 235 261 277 261 257 240 224 221 222 220 218 217 214 213 208 200 196 198 199 201 198 200 207 210 220 225 221 221 225 230 227 227
100 119 342 135 88 140 135 131 119 147 227 259 236 240 273 229 234 241 224 222 226 221 219 220 215 211 207 199 196 197 198 202 200 204 208 213 218 217 215 222 226 229 228 229
151 156 128 154 132 141 188 180 213 237 236 249 145 238 257 264 250 256 252 240 236 225 219 215 210 205 203 199 198 198 201 204 202 205 210 215 220 219 220 221 224 227 227 228
182 202 183 192 197 178 188 214 207 241 263 286 196 243 256 280 273 263 263 253 246 233 224 219 215 209 205 203 200 200 203 207 203 206 213 214 215 217 223 224 224 223 227 233
188 184 106 160 323 184 167 195 316 124 80 278 257 266 282 237 248 247 247 242 237 232 226 220 214 211 209 207 206 206 207 208 207 210 213 212 210 215 219 219 221 223 226 227
164 157 141 138 159 29 309 155 158 182 221 263 275 259 256 246 238 231 235 235 234 227 226 220 214 212 213 214 212 211 212 211 210 211 211 210 209 211 213 211 215 219 219 217
163 146 141 181 206 193 167 177 183 166 229 233 274 266 219 232 228 232 242 244 238 228 227 221 216 212 210 211 212 212 213 212 212 213 211 208 207 204 204 208 213 214 212 209
165 147 179 210 104 312 233 210 186 195 209 221 255 271 154 237 251 246 256 255 247 239 232 224 218 213 211 211 211 215 213 212 213 209 208 207 205 200 202 207 210 206 206 207
153 149 142 184 199 207 230 218 212 201 161 196 223 259 105 260 260 253 255 257 250 243 236 227 220 216 216 216 215 214 215 215 211 205 203 203 204 203 206 208 204 202 202 203
151 177 203 217 211 176 206 209 199 193 208 221 233 258 268 268 267 267 261 258 255 248 240 233 228 224 222 221 219 215 213 210 205 202 203 207 208 208 208 204 201 202 202 200
175 208 224 257 267 223 230 219 205 213 223 231 247 252 265 270 270 271 268 263 254 248 241 234 232 228 223 222 222 217 212 203 199 201 206 211 208 205 203 201 200 198 201 204
178 187 182 252 242 245 256 239 222 228 235 244 259 267 265 272 267 264 261 257 255 251 247 240 234 229 224 220 218 216 213 203 196 203 208 205 199 199 201 199 194 193 201 203
172 162 178 238 231 287 257 225 209 214 219 221 237 250 262 260 254 254 257 255 255 255 248 240 233 228 223 220 214 213 210 198 198 203 204 200 198 200 202 195 193 198 203 205
166 162 180 199 160 238 247 184 203 218 232 225 241 254 255 257 271 270 259 254 256 255 250 243 234 230 223 216 212 207 197 195 198 201 203 202 199 201 197 198 203 204 202 206
187 167 168 186 233 267 274 208 188 206 248 227 233 248 257 268 291 271 247 237 244 251 248 242 233 227 215 207 197 189 190 193 198 204 206 203 200 198 196 203 210 207 203 208
173 180 179 191 220 243 245 168 168 169 264 230 218 234 238 198 248 265 230 232 242 249 244 233 218 202 201 195 180 184 192 197 208 212 212 205 200 199 202 206 206 205 204 213
170 185 202 211 233 256 241 147 151 191 244 195 198 217 205 207 236 289 280 267 248 250 245 217 193 190 193 177 174 187 196 215 221 208 203 199 198 199 202 199 196 192 192 196
179 181 194 193 221 245 170 159 193 219 243 168 198 208 211 229 253 263 265 271 267 256 214 190 190 195 182 174 179 193 211 215 190 182 187 193 192 187 182 180 188 187 184 190
203 196 190 198 219 246 170 197 213 205 215 220 219 221 221 235 247 253 260 260 251 234 217 194 189 192 190 185 188 202 207 177 172 177 185 183 178 182 179 179 182 184 190 199
220 208 201 232 248 238 220 235 241 233 236 240 233 226 218 235 245 251 255 250 238 226 215 191 181 195 209 197 196 206 183 165 168 183 187 175 175 180 177 180 184 192 196 203
199 182 207 239 253 259 244 230 236 239 242 250 250 240 234 236 239 238 241 234 229 228 217 194 198 208 216 200 196 187 175 168 176 182 184 182 183 180 179 185 198 208 219 218
202 196 201 227 217 211 231 221 221 225 234 235 236 244 237 223 232 230 230 225 217 218 211 205 206 207 208 194 196 186 180 175 176 181 184 187 185 180 182 181 193 224 238 256